M3NIC-5 Weather Reports


time (UTC)temp
C
wind
direction
speed
KPH
gust
KPH
rain 1hr
cm
rain 24hr
cm
rain mn
cm
humidity
%
barometer
mb
20260510080004 11 74 6.4 20.9 0.00 0.00 0.00 79 1017.1
20260510070004 10 54 4.8 22.5 0.00 0.00 0.00 83 1017.4
20260510053003 10 42 4.8 19.3 0.00 0.00 0.00 85 1017.5
20260510050003 10 21 4.8 16.1 0.00 0.00 0.00 85 1017.5
20260510030005 11 19 3.2 11.3 0.00 0.00 0.00 77 1017.5
20260510023005 11 328 0.0 9.7 0.00 0.00 0.00 76 1017.7
20260510013004 11 13 1.6 9.7 0.00 0.00 0.00 75 1018.0
20260510010005 11 355 1.6 14.5 0.00 0.00 0.00 74 1017.9
20260510003004 11 7 3.2 11.3 0.00 0.00 0.00 72 1017.8
20260509233004 11 89 3.2 12.9 0.00 0.00 0.00 67 1018.2
20260509230004 11 73 3.2 14.5 0.00 0.00 0.00 64 1018.2
20260509210005 12 32 1.6 8.0 0.00 0.00 0.00 60 1018.1
20260509203005 12 58 0.0 16.1 0.00 0.00 0.00 57 1017.9
20260509200004 13 44 1.6 11.3 0.00 0.00 0.00 57 1017.6
20260509193004 15 25 3.2 20.9 0.00 0.00 0.00 54 1017.4
20260509180005 17 82 4.8 25.7 0.00 0.00 0.00 53 1016.9
20260509170004 18 35 11.3 24.1 0.00 0.00 0.00 48 1016.4
20260509130004 20 101 14.5 37.0 0.00 0.00 0.00 48 1017.4
20260509120005 20 88 14.5 29.0 0.00 0.00 0.00 48 1017.8
20260509103003 18 99 14.5 27.4 0.00 0.00 0.00 49 1018.5
20260509100002 18 101 8.0 24.1 0.00 0.00 0.00 55 1018.6
20260509093004 18 77 11.3 22.5 0.00 0.00 0.00 55 1018.7